EA3FQO-2 Weather Reports


Display with metric or nautical units.
time (UTC)temp
F
wind
direction
speed
MPH
gust
MPH
rain 1hr
in
rain 24hr
in
rain mn
in
humidity
%
barometer
mb
20260507161505 62 53 4.0 6.0 0.00 0.00 0.00 59 1008.0
20260507154505 64 28 2.0 5.0 0.00 0.00 0.00 52 1007.7
20260507153005 63 86 2.0 5.0 0.00 0.00 0.00 55 1007.6
20260507151504 67 25 2.0 5.0 0.00 0.00 0.00 46 1007.6
20260507150005 69 358 4.0 6.0 0.00 0.00 0.00 48 1007.7
20260507144504 70 102 2.0 8.0 0.00 0.00 0.00 49 1007.5
20260507143005 69 4 2.0 6.0 0.00 0.00 0.00 47 1007.4
20260507140005 70 334 4.0 7.0 0.00 0.00 0.00 52 1007.5
20260507134505 67 62 2.0 6.0 0.00 0.00 0.00 53 1007.8
20260507133005 69 353 2.0 9.0 0.00 0.00 0.00 50 1007.9
20260507131504 70 81 2.0 6.0 0.00 0.00 0.00 50 1008.0
20260507130005 68 348 4.0 5.0 0.00 0.00 0.00 52 1008.2
20260507124505 67 7 2.0 5.0 0.00 0.00 0.00 55 1008.2
20260507123005 64 53 1.0 5.0 0.00 0.00 0.00 57 1008.1
20260507121504 66 42 0.0 3.0 0.00 0.00 0.00 57 1008.3
20260507120005 69 334 1.0 3.0 0.00 0.00 0.00 51 1008.3
20260507114504 66 337 1.0 4.0 0.00 0.00 0.00 58 1008.5
20260507113005 68 55 4.0 6.0 0.00 0.00 0.00 53 1008.7
20260507111504 65 6 1.0 4.0 0.00 0.00 0.00 60 1008.7
20260507110004 65 96 1.0 3.0 0.00 0.00 0.00 57 1008.9
20260507104505 67 58 4.0 6.0 0.00 0.00 0.00 54 1009.0
20260507103004 63 25 2.0 4.0 0.00 0.00 0.00 64 1009.0
20260507101504 64 84 1.0 4.0 0.00 0.00 0.00 67 1009.0
20260507094504 65 330 1.0 5.0 0.00 0.00 0.00 59 1009.3
20260507093004 64 346 2.0 4.0 0.00 0.00 0.00 64 1009.2
20260507091504 64 296 2.0 3.0 0.00 0.00 0.00 65 1009.3
20260507090004 62 339 0.0 2.0 0.00 0.00 0.00 72 1009.3
20260507084503 60 313 2.0 4.0 0.00 0.00 0.00 79 1009.3
20260507083006 58 0 0.0 0.0 0.00 0.00 0.00 92 1009.4
20260507074506 51 0 0.0 0.0 0.00 0.00 0.00 99 1009.6
20260507073006 50 0 0.0 0.0 0.00 0.00 0.00 99 1009.6
20260507071506 49 0 0.0 0.0 0.00 0.00 0.00 99 1009.6
20260507070010 49 0 0.0 0.0 0.00 0.00 0.00 99 1009.5
20260507064506 48 0 0.0 0.0 0.00 0.00 0.00 99 1009.6
20260507063006 47 0 0.0 0.0 0.00 0.00 0.00 99 1009.5
20260507061505 46 0 0.0 0.0 0.00 0.00 0.00 99 1009.4
20260507060006 44 0 0.0 0.0 0.00 0.00 0.00 99 1009.2
20260507054506 43 0 0.0 0.0 0.00 0.00 0.00 99 1009.3
20260507053005 43 0 0.0 0.0 0.00 0.00 0.00 99 1009.2
20260507051506 43 0 0.0 0.0 0.00 0.00 0.00 99 1009.2
20260507050006 43 0 0.0 0.0 0.00 0.00 0.00 99 1009.1
20260507044505 43 0 0.0 0.0 0.00 0.00 0.00 99 1009.1
20260507043006 43 0 0.0 0.0 0.00 0.00 0.00 99 1009.3
20260507041506 42 0 0.0 0.0 0.00 0.00 0.00 99 1009.1
20260507040005 43 0 0.0 0.0 0.00 0.00 0.00 99 1009.2
20260507034506 43 0 0.0 0.0 0.00 0.00 0.00 99 1008.9
20260507033006 44 0 0.0 0.0 0.00 0.00 0.00 99 1008.9
20260507031505 45 0 0.0 0.0 0.00 0.00 0.00 99 1009.0
20260507024506 45 0 0.0 0.0 0.00 0.00 0.00 99 1009.1
20260507023006 45 0 0.0 0.0 0.00 0.00 0.00 99 1009.3
20260507021505 45 0 0.0 0.0 0.00 0.00 0.00 99 1009.2
20260507014506 46 0 0.0 0.0 0.00 0.00 0.00 97 1009.3
20260507013006 47 0 0.0 0.0 0.00 0.00 0.00 97 1009.5
20260507010005 48 0 0.0 0.0 0.00 0.00 0.00 97 1009.7
20260507004505 48 0 0.0 0.0 0.00 0.00 0.00 96 1009.8
20260507003006 48 0 0.0 0.0 0.00 0.00 0.00 96 1009.9
20260507001505 48 0 0.0 0.0 0.00 0.00 0.00 95 1009.9
20260507000005 48 0 0.0 0.0 0.00 0.00 0.00 94 1010.3
20260506234505 49 0 0.0 0.0 0.00 0.00 0.00 94 1010.3
20260506233006 49 0 0.0 0.0 0.00 0.00 0.00 93 1010.4
20260506231505 49 0 0.0 0.0 0.00 0.00 0.00 93 1010.4
20260506230005 50 0 0.0 0.0 0.00 0.00 0.00 94 1010.4
20260506223005 50 0 0.0 0.0 0.00 0.00 0.00 94 1010.3
20260506221505 50 0 0.0 0.0 0.00 0.00 0.00 94 1010.3
20260506220005 50 0 0.0 0.0 0.00 0.00 0.00 94 1010.2
20260506214505 50 0 0.0 0.0 0.00 0.00 0.00 93 1010.2
20260506213005 50 0 0.0 0.0 0.00 0.00 0.00 93 1010.3
20260506211505 50 0 0.0 0.0 0.00 0.00 0.00 93 1010.1
20260506204504 50 0 0.0 0.0 0.00 0.00 0.00 92 1010.1
20260506203005 50 0 0.0 0.0 0.00 0.00 0.00 91 1009.8
20260506201505 51 0 0.0 0.0 0.00 0.00 0.00 91 1009.8
20260506200005 51 0 0.0 0.0 0.00 0.00 0.00 90 1009.5
20260506193004 51 0 0.0 0.0 0.00 0.00 0.00 89 1009.0
20260506191505 51 0 0.0 0.0 0.00 0.00 0.00 88 1008.9
20260506190005 51 0 0.0 0.0 0.00 0.00 0.00 87 1008.8
20260506184505 51 0 0.0 0.0 0.00 0.01 0.00 86 1008.8
20260506183006 52 0 0.0 0.0 0.00 0.04 0.00 84 1008.6
20260506181504 52 6 0.0 2.0 0.00 0.04 0.00 84 1008.3
20260506180005 52 333 0.0 1.0 0.00 0.04 0.00 83 1008.4
20260506174505 52 341 0.0 4.0 0.00 0.04 0.00 82 1007.9
20260506173005 53 17 2.0 4.0 0.00 0.04 0.00 82 1007.8
20260506171504 53 72 0.0 5.0 0.00 0.04 0.00 80 1007.7
20260506170005 53 70 3.0 7.0 0.00 0.04 0.00 77 1007.4
20260506164505 55 9 4.0 7.0 0.00 0.04 0.00 71 1007.0